[[{"header":{"parameterUnit":"m.s-1","parameterCategory":1,"la1":30.2991,"la2":30.254,"lo1":-89.0895,"lo2":-89.0444,"dy":0.0017,"dx":0.0017,"nx":28,"ny":28,"refTime":"2025-11-06T09:00:00:Z","depth":0,"parameterNumber":2,"parameterNumberName":"U-component_of_WINDS"},"data":[0,0,0,0,0,0,0,0,0,0,0,0,0,0,0,0,0,0,0,0,0,0,0,0,0,0,0,0,0,0,0,0,0,0,0,0,0,0,0,0,0,0,0,0,0,0,0,0,0,0,0,0,0,0,0,0,0,0,0.4831,0.4831,0,0.4793,0.4792,0.4792,0.4731,0.473,0.4729,0.4728,0.4691,0.4691,0.4692,0,0,0,0,0,0,0,0,0,0,0,0,0,0.4854,0.4854,0.4831,0.4831,0.483,0.4793,0.4792,0.4792,0.4731,0.473,0.4728,0.4727,0.4691,0.4691,0.4692,0,0,0,0,0,0,0,0,0,0,0,0,0,0.4833,0.4854,0.4831,0.4795,0.4792,0.4793,0.4792,0.4792,0.4731,0.473,0.4728,0.4726,0.4691,0.4691,0.4692,0.4726,0,0,0.4692,0.4692,0,0,0,0,0,0,0,0,0.4834,0.4832,0.4801,0.4798,0.4794,0.4765,0.4787,0.477,0.4732,0.4754,0.4728,0.4726,0.4717,0.4715,0.4712,0.4724,0.4723,0.4692,0.4692,0.4692,0.4692,0,0,0,0,0,0,0,0.4836,0.4833,0.4816,0.4801,0.4796,0.4782,0.4777,0.4784,0.4746,0.4752,0.4748,0.4744,0.4715,0.4712,0.4711,0.4722,0.4692,0.4692,0.4692,0.4692,0.4761,0.4763,0,0,0,0,0,0,0.4842,0.4835,0.4817,0.4815,0.481,0.4783,0.4777,0.4776,0.4746,0.4739,0.4745,0.4741,0.4713,0.4711,0.4709,0.4748,0.4692,0.4692,0.4692,0.476,0.4762,0.4764,0,0,0,0,0,0,0.4843,0.4841,0.4819,0.4824,0.482,0.4784,0.4783,0.4776,0.4773,0.474,0.4734,0.4749,0.4711,0.4709,0.4722,0.4746,0.4692,0.4692,0.4758,0.476,0.4763,0.4825,0,0,0,0,0,0,0.4844,0.4842,0.4854,0.4824,0.482,0.4832,0.4784,0.4776,0.4773,0.4767,0.4742,0.4736,0.471,0.4722,0.4722,0.4745,0.4692,0.4755,0.4759,0.4762,0.4821,0.483,0.4837,0,0,0,0,0,0.4845,0.4873,0.4855,0.4853,0.4834,0.4833,0.4831,0.4799,0.4775,0.4787,0.4766,0.4737,0.4743,0.4724,0.4724,0.4747,0.4754,0.4758,0.4762,0.4818,0.4828,0.4837,0,0,0,0,0,0,0.4907,0.4869,0.4848,0.4867,0.4854,0.4823,0.4837,0.4811,0.4805,0.48,0.4761,0.4756,0.4775,0.4762,0.4742,0.4779,0.4744,0.4748,0.4787,0.4796,0.4804,0.4808,0.4693,0,0,0,0,0,0.4923,0.4925,0.4892,0.4913,0.4907,0.4873,0.4872,0.4848,0.4833,0.4828,0.4808,0.4795,0.4794,0.4794,0.4792,0.4819,0.4813,0.4834,0.4843,0.4849,0.4854,0.4868,0.4877,0.4777,0.4777,0.4777,0,0,0.4957,0.4936,0.494,0.4925,0.4911,0.4915,0.4869,0.4875,0.4878,0.4829,0.484,0.4825,0.4808,0.4829,0.4837,0.4819,0.488,0.4854,0.486,0.4861,0.4873,0.4883,0.4891,0.478,0.4779,0.4779,0,0,0.502,0.5004,0.5019,0.5007,0.4987,0.4965,0.4969,0.4941,0.4929,0.494,0.4903,0.4907,0.4905,0.4895,0.489,0.4949,0.4922,0.4949,0.4992,0.5006,0.5014,0.5021,0.5043,0.5051,0.4953,0.4953,0.4954,0,0.5064,0.5067,0.5031,0.5039,0.5034,0.4989,0.5005,0.4995,0.4976,0.4974,0.4954,0.4952,0.4937,0.4955,0.4969,0.4966,0.497,0.4952,0.5016,0.5022,0.5028,0.5049,0.5057,0.4957,0.4957,0.4956,0.4956,0,0.5123,0.5126,0.5141,0.5123,0.5119,0.5132,0.5098,0.5099,0.5076,0.5056,0.5068,0.5049,0.5042,0.5044,0.5022,0.5059,0.5049,0.5023,0.4987,0.5042,0.5061,0.5068,0.4962,0.4961,0.496,0.4959,0,0,0.5225,0.5186,0.5192,0.5184,0.5159,0.5161,0.5171,0.5163,0.5165,0.5154,0.5162,0.5162,0.5138,0.5132,0.5108,0.5121,0.517,0.5093,0.5092,0.5109,0.5211,0.5232,0.5241,0.5152,0.5153,0.5154,0.5213,0,0.5283,0.5298,0.5266,0.5289,0.5292,0.5249,0.5258,0.5245,0.5226,0.5227,0.5207,0.5208,0.5175,0.5172,0.5182,0.5162,0.519,0.5157,0.5161,0.5161,0.5167,0.5251,0.5272,0.5329,0.522,0.5221,0.5222,0,0.5353,0.5344,0.5367,0.5341,0.5341,0.535,0.534,0.5341,0.5325,0.5311,0.5304,0.5276,0.5286,0.5251,0.5264,0.5242,0.5242,0.5232,0.5234,0.5234,0.5196,0.5254,0.5346,0.5355,0.5233,0.5232,0.5231,0,0.5426,0.542,0.5433,0.5427,0.5396,0.5404,0.5392,0.5374,0.5371,0.5363,0.5361,0.5355,0.5352,0.5348,0.5319,0.5296,0.5337,0.5299,0.5326,0.5327,0.5338,0.5338,0.5432,0.5336,0.5336,0.5335,0.5335,0,0.5495,0.5511,0.5465,0.5474,0.5491,0.5454,0.5473,0.5456,0.5441,0.5446,0.5409,0.5415,0.5376,0.5378,0.5356,0.5371,0.5369,0.5359,0.5353,0.5363,0.5364,0.5363,0.5359,0.5338,0.5337,0.5337,0.5336,0,0.5579,0.5549,0.5561,0.5531,0.5524,0.5538,0.5513,0.552,0.5499,0.5506,0.5506,0.5474,0.5474,0.5445,0.544,0.5425,0.545,0.5437,0.5455,0.5452,0.5481,0.5479,0.5578,0.559,0.5486,0.5487,0.5488,0,0.5626,0.5637,0.5608,0.5608,0.5598,0.5599,0.5596,0.5561,0.556,0.5542,0.5552,0.5549,0.5545,0.5548,0.5525,0.5521,0.5508,0.5543,0.5507,0.5517,0.5509,0.5509,0.5511,0.5551,0.5552,0.5553,0.5554,0,0.5711,0.5696,0.5693,0.5685,0.5682,0.5674,0.5664,0.5667,0.5628,0.5629,0.5628,0.5625,0.5619,0.5618,0.5609,0.5598,0.557,0.5565,0.5571,0.5582,0.5593,0.5589,0.5477,0.5563,0.5562,0.5562,0.5561,0.5561,0.5779,0.5787,0.5768,0.5766,0.5754,0.5746,0.5751,0.5731,0.573,0.5722,0.5701,0.5704,0.5689,0.5674,0.5666,0.5668,0.5651,0.566,0.5662,0.5665,0.5671,0.5592,0.5667,0.5666,0.5666,0.5666,0.5666,0,0.5863,0.5849,0.5847,0.5834,0.5833,0.5805,0.5793,0.5794,0.5797,0.5784,0.5781,0.5781,0.5779,0.5756,0.5751,0.5758,0.5745,0.5758,0.5758,0.5756,0.5687,0.5682,0.5769,0.5769,0.5769,0.5769,0.5769,0.5769,0.5907,0.592,0.5903,0.591,0.5896,0.5898,0.5893,0.5886,0.5875,0.5877,0.5875,0.5859,0.5842,0.5837,0.5834,0.5827,0.5828,0.5846,0.5835,0.5771,0.5761,0.5751,0.5747,0.5846,0.5846,0.5904,0.5905,0.5905]},{"header":{"parameterUnit":"m.s-1","parameterCategory":1,"la1":30.2991,"la2":30.254,"lo1":-89.0895,"lo2":-89.0444,"dy":0.0017,"dx":0.0017,"nx":28,"ny":28,"refTime":"2025-11-06T09:00:00:Z","depth":0,"parameterNumber":3,"parameterNumberName":"V-component_of_WINDS"},"data":[0,0,0,0,0,0,0,0,0,0,0,0,0,0,0,0,0,0,0,0,0,0,0,0,0,0,0,0,0,0,0,0,0,0,0,0,0,0,0,0,0,0,0,0,0,0,0,0,0,0,0,0,0,0,0,0,0,0,3.2405,3.2405,0,3.2375,3.2375,3.2375,3.2313,3.2312,3.2311,3.231,3.2281,3.2282,3.2282,0,0,0,0,0,0,0,0,0,0,0,0,0,3.2412,3.2412,3.2405,3.2405,3.2405,3.2375,3.2375,3.2375,3.2314,3.2312,3.2311,3.2309,3.2281,3.2282,3.2282,0,0,0,0,0,0,0,0,0,0,0,0,0,3.2398,3.2412,3.2405,3.2371,3.2367,3.2376,3.2375,3.2375,3.2314,3.2312,3.231,3.2309,3.2281,3.2282,3.2282,3.2323,0,0,3.2284,3.2284,0,0,0,0,0,0,0,0,3.2399,3.2398,3.2376,3.2373,3.2369,3.2346,3.2367,3.2357,3.2314,3.2334,3.231,3.2308,3.2304,3.2303,3.2301,3.2321,3.232,3.2284,3.2284,3.2284,3.2285,0,0,0,0,0,0,0,3.24,3.2399,3.2393,3.2376,3.2372,3.2357,3.2353,3.2365,3.233,3.2332,3.2328,3.2325,3.2302,3.2301,3.23,3.232,3.2284,3.2284,3.2285,3.2285,3.2372,3.2374,0,0,0,0,0,0,3.2406,3.24,3.2394,3.2393,3.238,3.2359,3.2354,3.2355,3.233,3.2324,3.2327,3.2322,3.2301,3.23,3.2299,3.2345,3.2284,3.2285,3.2285,3.237,3.2373,3.2375,0,0,0,0,0,0,3.2406,3.2406,3.2396,3.2395,3.2393,3.236,3.2362,3.2356,3.2355,3.2325,3.2319,3.2332,3.23,3.2298,3.2317,3.2344,3.2285,3.2286,3.2368,3.2371,3.2374,3.2438,0,0,0,0,0,0,3.2407,3.2406,3.2421,3.2396,3.2393,3.2414,3.2364,3.2357,3.2356,3.235,3.2329,3.2323,3.2298,3.2317,3.2318,3.2343,3.2286,3.2365,3.2369,3.2373,3.2433,3.2443,3.2451,0,0,0,0,0,3.2407,3.244,3.2422,3.2421,3.241,3.2415,3.2414,3.2383,3.2358,3.2373,3.2354,3.2324,3.2341,3.2319,3.232,3.2346,3.2364,3.2368,3.2372,3.243,3.2441,3.2451,0,0,0,0,0,0,3.2469,3.2436,3.2415,3.2441,3.2432,3.2405,3.2422,3.2396,3.2394,3.2389,3.2352,3.2347,3.2372,3.2361,3.2337,3.2384,3.2347,3.2352,3.2391,3.2401,3.241,3.2412,3.2287,0,0,0,0,0,3.2486,3.2492,3.2463,3.2489,3.2485,3.2455,3.2456,3.2434,3.2422,3.2418,3.24,3.2391,3.2394,3.2397,3.2398,3.2432,3.2427,3.245,3.2459,3.2466,3.2471,3.2489,3.2499,3.2389,3.2389,3.2389,0,0,3.2521,3.2504,3.251,3.2501,3.2491,3.2499,3.2452,3.2462,3.2468,3.2419,3.2436,3.2424,3.2411,3.2437,3.2448,3.2429,3.25,3.2472,3.2478,3.2478,3.2494,3.2505,3.2514,3.2392,3.2392,3.2391,0,0,3.2588,3.2575,3.2596,3.2587,3.2572,3.2551,3.2556,3.2534,3.2523,3.254,3.2504,3.2511,3.2516,3.2509,3.2506,3.2572,3.2545,3.2574,3.2619,3.2637,3.2646,3.2653,3.2678,3.2687,3.2578,3.2578,3.2579,0,3.2633,3.2643,3.261,3.2623,3.262,3.2577,3.2598,3.259,3.2577,3.2577,3.2555,3.2563,3.2551,3.2575,3.2592,3.2591,3.2596,3.2576,3.2647,3.2654,3.2661,3.2684,3.2693,3.2582,3.2582,3.2581,3.2581,0,3.27,3.2708,3.2726,3.2714,3.2714,3.2731,3.2701,3.2705,3.2683,3.2665,3.2683,3.2667,3.2665,3.2669,3.2648,3.2692,3.268,3.2654,3.2616,3.2675,3.2696,3.2705,3.2587,3.2586,3.2585,3.2584,0,0,3.2805,3.2774,3.2782,3.2776,3.2757,3.2763,3.2778,3.2775,3.278,3.2773,3.2785,3.2792,3.2767,3.2764,3.2742,3.2757,3.2812,3.2729,3.2728,3.2745,3.286,3.2881,3.2891,3.2794,3.2795,3.2796,3.2861,0,3.2868,3.2892,3.2863,3.2893,3.2901,3.286,3.2874,3.2864,3.2848,3.2853,3.2836,3.2841,3.2808,3.2806,3.282,3.2802,3.2834,3.2797,3.2806,3.2807,3.2811,3.2902,3.2923,3.2985,3.2869,3.287,3.2871,0,3.2944,3.294,3.2972,3.2952,3.2953,3.2966,3.2962,3.2967,3.2955,3.2943,3.294,3.2913,3.2928,3.2891,3.2912,3.2887,3.2889,3.2882,3.2883,3.2883,3.2843,3.2905,3.3004,3.3014,3.2884,3.2883,3.2882,0,3.3018,3.3021,3.304,3.3037,3.3013,3.3024,3.3014,3.3001,3.3002,3.2999,3.2999,3.2998,3.2997,3.2997,3.2972,3.2947,3.2996,3.2957,3.2987,3.2988,3.2999,3.2999,3.3101,3.3,3.3,3.3,3.2999,0,3.3092,3.3113,3.3073,3.3085,3.3108,3.3075,3.3099,3.3086,3.3075,3.3084,3.3049,3.3059,3.3023,3.303,3.301,3.3031,3.3031,3.3022,3.3016,3.3025,3.3026,3.3026,3.3021,3.3002,3.3002,3.3001,3.3001,0,3.3178,3.3153,3.3171,3.3148,3.3142,3.316,3.3141,3.3151,3.3134,3.3146,3.3147,3.312,3.3126,3.31,3.3102,3.3088,3.312,3.3107,3.3123,3.312,3.3151,3.3149,3.3257,3.327,3.3161,3.3162,3.3163,0,3.3227,3.3242,3.3221,3.3224,3.3217,3.3223,3.3224,3.3192,3.3195,3.3184,3.3196,3.3199,3.32,3.3211,3.3192,3.3193,3.3181,3.3218,3.3181,3.3189,3.3182,3.3182,3.3184,3.3227,3.3228,3.3229,3.323,0,3.3316,3.3303,3.3305,3.3303,3.3305,3.3302,3.3296,3.3301,3.3268,3.3272,3.3278,3.3278,3.328,3.3284,3.3281,3.3273,3.3247,3.3242,3.3249,3.3259,3.3268,3.3264,3.3145,3.324,3.3239,3.3238,3.3237,3.3237,3.3385,3.3398,3.3385,3.3388,3.3381,3.3377,3.3386,3.337,3.3374,3.3372,3.3354,3.3364,3.3353,3.3347,3.3341,3.3349,3.3331,3.3342,3.3344,3.3347,3.3353,3.3267,3.3348,3.3348,3.3348,3.3348,3.3347,0,3.3474,3.3463,3.3467,3.3461,3.3464,3.3438,3.3432,3.3436,3.3445,3.3437,3.3439,3.3446,3.345,3.3431,3.3433,3.3443,3.3431,3.3444,3.3443,3.3442,3.3369,3.3363,3.3454,3.3454,3.3454,3.3454,3.3454,3.3454,3.352,3.3539,3.3525,3.3541,3.353,3.3539,3.3537,3.3534,3.3528,3.3537,3.354,3.3528,3.3517,3.3517,3.352,3.3515,3.3517,3.3535,3.3526,3.3458,3.3447,3.3437,3.3431,3.3536,3.3536,3.3599,3.36,3.36]}]]